[[{"header":{"parameterUnit":"m.s-1","parameterCategory":1,"la1":30.2991,"la2":30.254,"lo1":-89.0895,"lo2":-89.0444,"dy":0.0017,"dx":0.0017,"nx":28,"ny":28,"refTime":"2023-11-13T03:00:00:Z","depth":0,"parameterNumber":2,"parameterNumberName":"U-component_of_WINDS"},"data":[0,0,0,0,0,0,0,0,0,0,0,0,0,0,0,0,0,0,0,0,0,0,0,0,0,0,0,0,0,0,0,0,0,0,0,0,0,0,0,0,0,0,0,0,0,0,0,0,0,0,0,0,0,0,0,0,0,0,-3.5882,-3.5881,0,-3.5867,-3.5867,-3.5867,-3.5767,-3.5765,-3.5763,-3.576,-3.5746,-3.5748,-3.575,0,0,0,0,0,0,0,0,0,0,0,0,0,-3.5825,-3.5826,-3.5882,-3.5881,-3.5881,-3.5867,-3.5867,-3.5867,-3.5768,-3.5765,-3.5762,-3.5759,-3.5745,-3.5748,-3.575,0,0,0,0,0,0,0,0,0,0,0,0,0,-3.5834,-3.5827,-3.5882,-3.583,-3.5825,-3.5867,-3.5867,-3.5867,-3.5768,-3.5765,-3.5761,-3.5758,-3.5745,-3.5747,-3.575,-3.584,0,0,-3.5759,-3.576,0,0,0,0,0,0,0,0,-3.5833,-3.5836,-3.5838,-3.5834,-3.5829,-3.5815,-3.5841,-3.5858,-3.5769,-3.579,-3.576,-3.5756,-3.5772,-3.5772,-3.5778,-3.584,-3.5839,-3.5759,-3.5761,-3.5762,-3.5763,0,0,0,0,0,0,0,-3.5833,-3.5836,-3.5876,-3.5838,-3.5832,-3.5808,-3.5805,-3.5844,-3.5802,-3.5788,-3.5781,-3.578,-3.5769,-3.5775,-3.5777,-3.5839,-3.5759,-3.5762,-3.5763,-3.5764,-3.5975,-3.5978,0,0,0,0,0,0,-3.5839,-3.5836,-3.5876,-3.5875,-3.5822,-3.5812,-3.5809,-3.5823,-3.5801,-3.5794,-3.5784,-3.5776,-3.5772,-3.5773,-3.5776,-3.588,-3.5762,-3.5765,-3.5766,-3.5971,-3.5975,-3.598,0,0,0,0,0,0,-3.5839,-3.5844,-3.5877,-3.5854,-3.5856,-3.5817,-3.5834,-3.5825,-3.5831,-3.5798,-3.579,-3.5798,-3.5769,-3.5772,-3.5825,-3.5878,-3.5766,-3.5768,-3.5966,-3.5972,-3.5978,-3.609,0,0,0,0,0,0,-3.5837,-3.5844,-3.5878,-3.5855,-3.5858,-3.5927,-3.5837,-3.5827,-3.5836,-3.5826,-3.5809,-3.5803,-3.5767,-3.5821,-3.5828,-3.588,-3.5771,-3.5961,-3.5969,-3.5976,-3.6081,-3.6099,-3.6114,0,0,0,0,0,-3.5836,-3.591,-3.588,-3.5885,-3.5899,-3.593,-3.5931,-3.5888,-3.5841,-3.5875,-3.5853,-3.5803,-3.5871,-3.5828,-3.5834,-3.5888,-3.5958,-3.5967,-3.5975,-3.6074,-3.6095,-3.6114,0,0,0,0,0,0,-3.594,-3.5906,-3.5873,-3.5942,-3.594,-3.5913,-3.5954,-3.5912,-3.5923,-3.5914,-3.586,-3.5857,-3.5919,-3.5908,-3.586,-3.5974,-3.5906,-3.5916,-3.5979,-3.5999,-3.6015,-3.6016,-3.5773,0,0,0,0,0,-3.5971,-3.5999,-3.5968,-3.6032,-3.6032,-3.5994,-3.6006,-3.5973,-3.5968,-3.5967,-3.5949,-3.5947,-3.5968,-3.5983,-3.6,-3.6079,-3.6074,-3.6119,-3.6136,-3.6149,-3.6159,-3.6201,-3.6221,-3.6008,-3.6008,-3.6008,0,0,-3.6036,-3.6021,-3.6041,-3.6053,-3.6047,-3.6077,-3.5994,-3.6029,-3.6051,-3.5972,-3.6021,-3.6009,-3.6003,-3.607,-3.6098,-3.6063,-3.6217,-3.616,-3.6172,-3.6174,-3.6212,-3.6232,-3.625,-3.6014,-3.6013,-3.6012,0,0,-3.6169,-3.616,-3.6213,-3.6209,-3.6201,-3.6175,-3.6188,-3.6168,-3.6156,-3.6205,-3.6147,-3.6172,-3.6209,-3.6207,-3.6211,-3.6344,-3.6299,-3.6352,-3.6437,-3.6479,-3.6495,-3.651,-3.6558,-3.6576,-3.6361,-3.6362,-3.6362,0,-3.625,-3.6293,-3.6245,-3.6285,-3.6291,-3.6221,-3.6275,-3.6273,-3.6272,-3.6279,-3.6239,-3.6284,-3.6275,-3.6341,-3.6374,-3.6379,-3.6393,-3.6353,-3.6497,-3.6511,-3.6524,-3.6569,-3.6587,-3.6368,-3.6367,-3.6367,-3.6366,0,-3.6394,-3.6424,-3.6468,-3.6469,-3.648,-3.6526,-3.6486,-3.6504,-3.647,-3.6448,-3.6499,-3.6486,-3.65,-3.6512,-3.648,-3.6574,-3.6553,-3.6506,-3.6436,-3.6551,-3.6593,-3.661,-3.6377,-3.6375,-3.6373,-3.6372,0,0,-3.6592,-3.6566,-3.6583,-3.6582,-3.6569,-3.6592,-3.6635,-3.6648,-3.6665,-3.6667,-3.6702,-3.6735,-3.6692,-3.6697,-3.6663,-3.6699,-3.6807,-3.6648,-3.6647,-3.6679,-3.6911,-3.6947,-3.6967,-3.6776,-3.6779,-3.6782,-3.6911,0,-3.6721,-3.6793,-3.6751,-3.683,-3.6858,-3.6792,-3.683,-3.6826,-3.6807,-3.6828,-3.6807,-3.6832,-3.6772,-3.6775,-3.6807,-3.6787,-3.6853,-3.6777,-3.6809,-3.6811,-3.6814,-3.6989,-3.7027,-3.715,-3.6927,-3.693,-3.6932,0,-3.688,-3.6889,-3.697,-3.6952,-3.6962,-3.6997,-3.7006,-3.7027,-3.7021,-3.7005,-3.7011,-3.6968,-3.701,-3.6941,-3.6998,-3.6947,-3.6958,-3.695,-3.6953,-3.6955,-3.6879,-3.6996,-3.7188,-3.7207,-3.6957,-3.6955,-3.6953,0,-3.7018,-3.705,-3.7102,-3.7104,-3.7084,-3.711,-3.7103,-3.7093,-3.7104,-3.7112,-3.7119,-3.7132,-3.7139,-3.715,-3.7113,-3.7066,-3.7176,-3.7103,-3.7164,-3.7165,-3.719,-3.7189,-3.7387,-3.7196,-3.7196,-3.7196,-3.7195,0,-3.7166,-3.7219,-3.7164,-3.7197,-3.7254,-3.7206,-3.7264,-3.7249,-3.7242,-3.7271,-3.7214,-3.7243,-3.7191,-3.7215,-3.7186,-3.7238,-3.7242,-3.723,-3.7222,-3.7236,-3.7237,-3.7242,-3.7233,-3.7201,-3.72,-3.7199,-3.7198,0,-3.733,-3.7295,-3.7349,-3.7325,-3.7321,-3.7364,-3.7344,-3.7373,-3.735,-3.7388,-3.7394,-3.7358,-3.7383,-3.7347,-3.7367,-3.7348,-3.742,-3.7398,-3.7422,-3.7416,-3.7479,-3.7474,-3.7687,-3.7713,-3.7506,-3.7508,-3.751,0,-3.7427,-3.7466,-3.7447,-3.7462,-3.7458,-3.7483,-3.7494,-3.7448,-3.7462,-3.7459,-3.7489,-3.7509,-3.7522,-3.7565,-3.7542,-3.7557,-3.7536,-3.761,-3.7538,-3.7551,-3.7538,-3.7537,-3.7541,-3.7625,-3.7627,-3.7629,-3.7631,0,-3.7603,-3.7584,-3.7602,-3.7614,-3.7628,-3.7636,-3.7639,-3.7655,-3.7606,-3.7625,-3.7649,-3.766,-3.7681,-3.7702,-3.7712,-3.7705,-3.7661,-3.7654,-3.7669,-3.7683,-3.7696,-3.7691,-3.7463,-3.7649,-3.7647,-3.7646,-3.7645,-3.7644,-3.7737,-3.7769,-3.776,-3.7782,-3.7779,-3.7784,-3.781,-3.7791,-3.7811,-3.7824,-3.7796,-3.7828,-3.7822,-3.783,-3.7828,-3.7853,-3.782,-3.7842,-3.7848,-3.7854,-3.7864,-3.7692,-3.7854,-3.7853,-3.7853,-3.7852,-3.7852,0,-3.7911,-3.7902,-3.7923,-3.7929,-3.7946,-3.7902,-3.7904,-3.7921,-3.795,-3.7948,-3.7962,-3.7991,-3.8011,-3.7989,-3.8005,-3.8029,-3.8009,-3.8035,-3.8033,-3.8032,-3.7891,-3.7877,-3.8051,-3.8051,-3.8051,-3.8051,-3.8051,-3.805,-3.8004,-3.8055,-3.8036,-3.8086,-3.8076,-3.8107,-3.8111,-3.8115,-3.8113,-3.8148,-3.8164,-3.8149,-3.814,-3.8154,-3.8171,-3.8164,-3.8173,-3.8206,-3.8192,-3.8061,-3.8042,-3.8023,-3.801,-3.8208,-3.8209,-3.8331,-3.8332,-3.8333]},{"header":{"parameterUnit":"m.s-1","parameterCategory":1,"la1":30.2991,"la2":30.254,"lo1":-89.0895,"lo2":-89.0444,"dy":0.0017,"dx":0.0017,"nx":28,"ny":28,"refTime":"2023-11-13T03:00:00:Z","depth":0,"parameterNumber":3,"parameterNumberName":"V-component_of_WINDS"},"data":[0,0,0,0,0,0,0,0,0,0,0,0,0,0,0,0,0,0,0,0,0,0,0,0,0,0,0,0,0,0,0,0,0,0,0,0,0,0,0,0,0,0,0,0,0,0,0,0,0,0,0,0,0,0,0,0,0,0,-4.4257,-4.4257,0,-4.4301,-4.4301,-4.4302,-4.4263,-4.4262,-4.426,-4.4258,-4.43,-4.4302,-4.4305,0,0,0,0,0,0,0,0,0,0,0,0,0,-4.4135,-4.4137,-4.4257,-4.4257,-4.4258,-4.4301,-4.4301,-4.4302,-4.4263,-4.4261,-4.426,-4.4258,-4.4299,-4.4302,-4.4305,0,0,0,0,0,0,0,0,0,0,0,0,0,-4.4184,-4.4138,-4.4257,-4.4244,-4.4243,-4.4301,-4.4301,-4.4302,-4.4264,-4.4261,-4.4259,-4.4257,-4.4298,-4.4302,-4.4305,-4.4377,0,0,-4.4317,-4.4319,0,0,0,0,0,0,0,0,-4.4181,-4.4189,-4.4245,-4.4245,-4.4244,-4.4274,-4.4273,-4.4327,-4.4264,-4.4256,-4.4258,-4.4256,-4.4293,-4.4297,-4.431,-4.4378,-4.438,-4.4318,-4.432,-4.4322,-4.4323,0,0,0,0,0,0,0,-4.4178,-4.4187,-4.4274,-4.4246,-4.4245,-4.4234,-4.4239,-4.4283,-4.4287,-4.4256,-4.4254,-4.426,-4.4292,-4.4307,-4.4311,-4.4381,-4.4317,-4.4321,-4.4323,-4.4325,-4.4508,-4.4511,0,0,0,0,0,0,-4.4177,-4.4184,-4.4273,-4.4275,-4.4207,-4.4239,-4.4244,-4.4267,-4.4286,-4.4287,-4.4262,-4.4258,-4.4301,-4.4307,-4.4312,-4.4396,-4.4322,-4.4325,-4.4327,-4.4506,-4.4509,-4.4511,0,0,0,0,0,0,-4.4174,-4.4185,-4.4271,-4.4229,-4.4239,-4.4243,-4.427,-4.4269,-4.4284,-4.429,-4.429,-4.4276,-4.43,-4.4307,-4.4361,-4.4397,-4.4327,-4.433,-4.4503,-4.4507,-4.451,-4.4565,0,0,0,0,0,0,-4.4171,-4.4184,-4.4212,-4.423,-4.4242,-4.432,-4.4272,-4.4272,-4.4291,-4.4286,-4.4304,-4.4305,-4.4298,-4.4355,-4.4365,-4.4401,-4.4333,-4.4499,-4.4504,-4.4509,-4.456,-4.457,-4.4579,0,0,0,0,0,-4.4167,-4.4226,-4.4214,-4.4225,-4.4277,-4.4322,-4.4329,-4.4321,-4.4294,-4.4321,-4.4326,-4.4304,-4.4392,-4.4361,-4.4371,-4.441,-4.4497,-4.4503,-4.4509,-4.4556,-4.4568,-4.4579,0,0,0,0,0,0,-4.4211,-4.4228,-4.4215,-4.4282,-4.4301,-4.4316,-4.4351,-4.4335,-4.4362,-4.4356,-4.4344,-4.4349,-4.4405,-4.4413,-4.4379,-4.4479,-4.444,-4.4448,-4.4472,-4.4484,-4.4493,-4.449,-4.4337,0,0,0,0,0,-4.4229,-4.4266,-4.4278,-4.4335,-4.4346,-4.4347,-4.4366,-4.4359,-4.4378,-4.4385,-4.4393,-4.4411,-4.4443,-4.4464,-4.4493,-4.4561,-4.4564,-4.4592,-4.4601,-4.4609,-4.4616,-4.4652,-4.4664,-4.453,-4.453,-4.453,0,0,-4.4265,-4.4279,-4.4303,-4.4344,-4.4359,-4.4396,-4.4354,-4.4395,-4.4422,-4.4391,-4.4443,-4.4449,-4.4468,-4.453,-4.4557,-4.4537,-4.4654,-4.4617,-4.4623,-4.4626,-4.4659,-4.4672,-4.4683,-4.4534,-4.4534,-4.4533,0,0,-4.4351,-4.4366,-4.4415,-4.443,-4.4452,-4.4453,-4.4464,-4.4481,-4.4485,-4.4537,-4.4515,-4.4545,-4.46,-4.4615,-4.4629,-4.472,-4.4701,-4.4729,-4.4779,-4.4814,-4.4824,-4.4834,-4.4865,-4.4877,-4.4736,-4.4737,-4.4737,0,-4.4394,-4.445,-4.4442,-4.4485,-4.4503,-4.4478,-4.4527,-4.4542,-4.4572,-4.4584,-4.4562,-4.463,-4.4641,-4.4705,-4.4727,-4.474,-4.4752,-4.4727,-4.4824,-4.4833,-4.4842,-4.4872,-4.4884,-4.474,-4.474,-4.4739,-4.4739,0,-4.4501,-4.454,-4.4577,-4.4608,-4.463,-4.4676,-4.4673,-4.4697,-4.4687,-4.4689,-4.4741,-4.4754,-4.4785,-4.48,-4.479,-4.4862,-4.4849,-4.4826,-4.4786,-4.4858,-4.4886,-4.4897,-4.4745,-4.4744,-4.4743,-4.4742,0,0,-4.4616,-4.4642,-4.4656,-4.4669,-4.4692,-4.4721,-4.4765,-4.4796,-4.4816,-4.4837,-4.4873,-4.492,-4.4898,-4.4915,-4.4906,-4.4937,-4.5007,-4.491,-4.491,-4.4927,-4.5085,-4.5103,-4.5116,-4.4994,-4.4996,-4.4998,-4.5084,0,-4.4703,-4.4781,-4.4774,-4.4847,-4.4883,-4.4859,-4.4897,-4.4914,-4.4916,-4.4945,-4.4948,-4.4981,-4.495,-4.496,-4.4989,-4.4992,-4.5038,-4.4986,-4.5026,-4.5028,-4.5022,-4.5131,-4.515,-4.523,-4.5095,-4.5096,-4.5098,0,-4.4815,-4.4841,-4.4918,-4.4934,-4.4949,-4.4983,-4.5011,-4.504,-4.5058,-4.5057,-4.5076,-4.5062,-4.5104,-4.5064,-4.5122,-4.5086,-4.5102,-4.5106,-4.5109,-4.5112,-4.5067,-4.5137,-4.5255,-4.5267,-4.5115,-4.5114,-4.5112,0,-4.4891,-4.4945,-4.4998,-4.501,-4.5031,-4.5055,-4.5065,-4.508,-4.51,-4.5123,-4.5135,-4.5163,-4.5179,-4.52,-4.5194,-4.5165,-4.5253,-4.5212,-4.5252,-4.5253,-4.5272,-4.5271,-4.5394,-4.5283,-4.5282,-4.5282,-4.5282,0,-4.4988,-4.5036,-4.5032,-4.5065,-4.5117,-4.5109,-4.516,-4.5166,-4.518,-4.5212,-4.5193,-4.5223,-4.5213,-4.5242,-4.5238,-4.5285,-4.5292,-4.5293,-4.5291,-4.5294,-4.5294,-4.5304,-4.5299,-4.5285,-4.5285,-4.5284,-4.5284,0,-4.5082,-4.5082,-4.5138,-4.5153,-4.5157,-4.5195,-4.5207,-4.5237,-4.5238,-4.5279,-4.5288,-4.5289,-4.5322,-4.5318,-4.5355,-4.5352,-4.5411,-4.5403,-4.5406,-4.5404,-4.5444,-4.5441,-4.5579,-4.5596,-4.5473,-4.5475,-4.5475,0,-4.5144,-4.518,-4.5199,-4.522,-4.5232,-4.5265,-4.5285,-4.5277,-4.5298,-4.5321,-4.5347,-4.5379,-4.5404,-4.5458,-4.5462,-4.5489,-4.5481,-4.5528,-4.5485,-4.5487,-4.5481,-4.5479,-4.5482,-4.5536,-4.5537,-4.5538,-4.5539,0,-4.5254,-4.5252,-4.5282,-4.5312,-4.5336,-4.5358,-4.5379,-4.5396,-4.539,-4.5414,-4.5449,-4.5469,-4.5507,-4.5538,-4.5564,-4.5572,-4.5555,-4.5553,-4.5563,-4.5568,-4.5568,-4.5568,-4.5428,-4.555,-4.5549,-4.5548,-4.5547,-4.5547,-4.5334,-4.5365,-4.5383,-4.5416,-4.5431,-4.545,-4.5479,-4.5484,-4.5513,-4.5544,-4.5537,-4.5576,-4.5591,-4.5625,-4.5636,-4.5665,-4.5648,-4.5663,-4.5667,-4.5671,-4.5676,-4.5563,-4.5669,-4.5669,-4.5669,-4.5669,-4.5668,0,-4.5443,-4.5453,-4.5484,-4.5514,-4.554,-4.5522,-4.5543,-4.5566,-4.56,-4.5617,-4.5642,-4.5681,-4.5711,-4.5717,-4.5745,-4.5768,-4.576,-4.5775,-4.5773,-4.5775,-4.569,-4.5678,-4.5781,-4.5781,-4.5781,-4.5781,-4.5781,-4.5781,-4.5502,-4.5554,-4.5554,-4.5611,-4.5621,-4.566,-4.5673,-4.569,-4.5704,-4.5749,-4.5774,-4.5778,-4.579,-4.5819,-4.5845,-4.5846,-4.5857,-4.5875,-4.5873,-4.5793,-4.5781,-4.5771,-4.5759,-4.5878,-4.5878,-4.5955,-4.5956,-4.5957]}]]